Weather History for Kirksville, MO

Change the Weather History Date:

Wednesday, February 27, 2013

  Actual Average Record
Temperature  
Mean Temperature 29 °F 34 °F  
Max Temperature 31 °F 43 °F 71 °F (1976)
Min Temperature 27 °F 24 °F -12 °F (1934)
Degree Days  
Heating Degree Days 36 31  
Month to date heating degree days 969 955  
Since 1 July heating degree days 4345 4502  
Cooling Degree Days 0 0  
Month to date cooling degree days 0 0  
Year to date cooling degree days 0 0  
Moisture  
Dew Point 26 °F    
Average Humidity 85    
Maximum Humidity 92    
Minimum Humidity 78    
Precipitation  
Precipitation 0.21 in 0.06 in 1.32 in (1948)
Month to date precipitation 3.35 1.48  
Year to date precipitation 5.45 2.75  
Sea Level Pressure  
Sea Level Pressure 29.82 in    
Wind  
Wind Speed 12 mph (WNW)    
Max Wind Speed 17 mph    
Max Gust Speed 23 mph    
Visibility 2 miles    
Events Fog , Snow    
T = Trace of Precipitation, MM = Missing Value Source: NWS Daily Summary

Daily Weather History Graph

Daily Weather History Graph

Search for Another Location

Airport:

Trip Planner

Search our weather history database for the weather conditions in past years. The results will help you decide how hot, cold, wet, or windy it might be!

Date:

Astronomy

Feb. 27, 2013 Rise Set
Actual Time 6:46 AM CST 6:00 PM CST
Civil Twilight 6:18 AM CST 6:27 PM CST
Nautical Twilight 5:47 AM CST 6:58 PM CST
Astronomical Twilight 5:16 AM CST 7:30 PM CST
Moon 8:22 PM CST (2/27) 7:21 AM CST (2/27)
Length of Visible Light 12h 08m
Length of Day
11h 13m
Waning Gibbous, 96% of the Moon is Illuminated
Feb 27
Waning Gibbous
Mar 4
Last Quarter
Mar 11
New
Mar 19
First Quarter
Mar 27
Full

Hourly Weather History & Observations

Time (CST) Temp. Windchill Dew Point Humidity Pressure Visibility Wind Dir Wind Speed Gust Speed Precip Events Conditions
12:01 AM 30.2 °F 22.6 °F 28.4 °F 93% 29.72 in 2.0 mi NW 8.1 mph - 0.00 in Snow Light Snow
12:12 AM 30.2 °F 23.4 °F 28.4 °F 93% 29.72 in 3.0 mi NW 6.9 mph - 0.01 in Snow Light Snow
12:27 AM 30.2 °F 22.6 °F 28.4 °F 93% 29.72 in 4.0 mi NW 8.1 mph - 0.01 in   Overcast
12:55 AM 30.9 °F 22.8 °F 28.9 °F 92% 29.76 in 5.0 mi NW 9.2 mph - 0.01 in   Overcast
1:30 AM 30.2 °F 22.6 °F 28.4 °F 93% 29.73 in 2.5 mi NW 8.1 mph - 0.00 in Snow Light Snow
1:53 AM 30.2 °F 21.9 °F 28.4 °F 93% 29.73 in 1.5 mi NW 9.2 mph - 0.01 in Snow Light Snow
1:55 AM 30.9 °F 24.3 °F 28.9 °F 92% 29.77 in 1.8 mi NW 6.9 mph - 0.01 in Snow Light Snow
1:58 AM 30.2 °F 21.9 °F 28.4 °F 93% 29.73 in 2.0 mi NW 9.2 mph - 0.00 in Snow Light Snow
2:10 AM 30.2 °F 21.9 °F 28.4 °F 93% 29.73 in 1.2 mi WNW 9.2 mph - 0.01 in Snow Light Snow
2:31 AM 30.2 °F 21.9 °F 28.4 °F 93% 29.73 in 1.8 mi WNW 9.2 mph - 0.03 in Snow Light Snow
2:53 AM 30.2 °F 21.3 °F 28.4 °F 93% 29.73 in 2.0 mi NW 10.4 mph - 0.04 in Snow Light Snow
2:55 AM 30.9 °F 22.8 °F 28.9 °F 92% 29.77 in 2.0 mi NW 9.2 mph - 0.04 in Snow Light Snow
3:18 AM 30.2 °F 20.8 °F 28.4 °F 93% 29.73 in 1.8 mi NW 11.5 mph - 0.00 in Snow Light Snow
3:55 AM 30.0 °F 21.1 °F 28.0 °F 92% 29.77 in 1.5 mi NW 10.4 mph - 0.01 in Snow Light Snow
4:05 AM 30.2 °F 21.3 °F 28.4 °F 93% 29.73 in 1.5 mi NW 10.4 mph - 0.01 in Snow Light Snow
4:33 AM 30.2 °F 21.9 °F 28.4 °F 93% 29.74 in 1.2 mi WNW 9.2 mph - 0.01 in Snow Light Snow
4:55 AM 30.0 °F 20.0 °F 27.0 °F 88% 29.78 in 1.0 mi WNW 12.7 mph - 0.02 in Snow Light Snow
5:11 AM 28.4 °F 18.0 °F 26.6 °F 93% 29.73 in 1.2 mi WNW 12.7 mph - 0.00 in Snow Light Snow
5:38 AM 28.4 °F 18.5 °F 26.6 °F 93% 29.74 in 1.5 mi WNW 11.5 mph - 0.01 in Snow Light Snow
5:55 AM 28.9 °F 19.2 °F 26.1 °F 89% 29.78 in 1.8 mi WNW 11.5 mph - 0.01 in Snow Light Snow
6:03 AM 28.4 °F 18.5 °F 26.6 °F 93% 29.74 in 1.5 mi WNW 11.5 mph - 0.00 in Snow Light Snow
6:17 AM 28.4 °F 19.7 °F 26.6 °F 93% 29.74 in 1.2 mi WNW 9.2 mph - 0.00 in Snow Light Snow
6:55 AM 28.0 °F 18.6 °F 26.1 °F 92% 29.79 in 1.8 mi WNW 10.4 mph - 0.00 in Snow Light Snow
7:39 AM 28.4 °F 18.5 °F 26.6 °F 93% 29.76 in 2.0 mi WNW 11.5 mph - 0.00 in Snow Light Snow
7:55 AM 28.0 °F 18.6 °F 26.1 °F 92% 29.81 in 2.5 mi WNW 10.4 mph - 0.00 in Snow Light Snow
8:12 AM 28.4 °F 19.7 °F 24.8 °F 86% 29.77 in 3.0 mi WNW 9.2 mph - N/A   Overcast
8:18 AM 28.4 °F 19.1 °F 24.8 °F 86% 29.78 in 2.5 mi WNW 10.4 mph - N/A   Overcast
8:47 AM 28.4 °F 19.1 °F 24.8 °F 86% 29.78 in 3.0 mi WNW 10.4 mph - N/A   Overcast
8:55 AM 28.4 °F 19.1 °F 24.8 °F 86% 29.78 in 2.5 mi WNW 10.4 mph - N/A   Overcast
9:03 AM 28.4 °F 18.5 °F 24.8 °F 86% 29.78 in 2.0 mi WNW 11.5 mph - 0.00 in Snow Light Snow
9:13 AM 28.4 °F 18.5 °F 24.8 °F 86% 29.79 in 1.2 mi WNW 11.5 mph - 0.00 in Snow Light Snow
9:23 AM 28.4 °F 18.5 °F 26.6 °F 93% 29.79 in 0.8 mi WNW 11.5 mph - 0.01 in Snow Light Snow
9:46 AM 28.4 °F 19.1 °F 26.6 °F 93% 29.79 in 0.8 mi WNW 10.4 mph - 0.02 in Snow Light Snow
9:55 AM 28.9 °F 19.2 °F 26.1 °F 89% 29.83 in 0.8 mi WNW 11.5 mph - 0.02 in Snow Light Snow
10:13 AM 28.4 °F 18.5 °F 26.6 °F 93% 29.79 in 1.2 mi WNW 11.5 mph - 0.00 in Snow Light Snow
10:20 AM 28.4 °F 18.5 °F 24.8 °F 86% 29.79 in 1.5 mi WNW 11.5 mph - 0.00 in Snow Light Snow
10:55 AM 28.9 °F 19.2 °F 25.0 °F 85% 29.84 in 1.0 mi WNW 11.5 mph - 0.01 in Snow Light Snow
11:09 AM 28.4 °F 18.0 °F 24.8 °F 86% 29.80 in 0.8 mi WNW 12.7 mph - 0.00 in Snow Light Snow
11:22 AM 28.4 °F 18.0 °F 24.8 °F 86% 29.81 in 1.0 mi WNW 12.7 mph - 0.00 in Snow Light Snow
11:55 AM 30.0 °F 20.0 °F 25.0 °F 82% 29.85 in 1.2 mi WNW 12.7 mph - 0.01 in Snow Light Snow
12:38 PM 30.2 °F 21.3 °F 26.6 °F 86% 29.80 in 1.2 mi WNW 10.4 mph 19.6 mph 0.00 in Snow Light Snow
12:55 PM 30.0 °F 18.7 °F 25.0 °F 82% 29.84 in 1.5 mi WNW 16.1 mph 23.0 mph 0.00 in Snow Light Snow
1:55 PM 30.0 °F 19.1 °F 25.0 °F 82% 29.85 in 1.0 mi WNW 15.0 mph - 0.01 in Snow Light Snow
2:22 PM 30.2 °F 20.2 °F 26.6 °F 86% 29.82 in 0.5 mi WNW 12.7 mph - N/A Fog , Snow Light Snow
2:39 PM 30.2 °F 20.2 °F 26.6 °F 86% 29.82 in 0.8 mi WNW 12.7 mph - 0.01 in Snow Light Snow
2:55 PM 30.0 °F 20.5 °F 26.1 °F 85% 29.87 in 1.0 mi WNW 11.5 mph - 0.02 in Snow Light Snow
3:00 PM 30.2 °F 19.8 °F 26.6 °F 86% 29.83 in 0.8 mi WNW 13.8 mph - 0.00 in Snow Light Snow
3:17 PM 30.2 °F 20.8 °F 26.6 °F 86% 29.83 in 1.0 mi WNW 11.5 mph 20.7 mph 0.00 in Snow Light Snow
3:25 PM 30.2 °F 19.8 °F 26.6 °F 86% 29.84 in 0.8 mi WNW 13.8 mph - 0.00 in Snow Light Snow
3:41 PM 30.2 °F 20.2 °F 26.6 °F 86% 29.84 in 1.0 mi NW 12.7 mph - 0.01 in Snow Light Snow
3:48 PM 30.2 °F 20.2 °F 26.6 °F 86% 29.84 in 0.8 mi WNW 12.7 mph - 0.01 in Snow Light Snow
3:52 PM 30.2 °F 20.8 °F 26.6 °F 86% 29.84 in 1.0 mi WNW 11.5 mph - 0.01 in Snow Light Snow
3:55 PM 30.0 °F 19.5 °F 26.1 °F 85% 29.88 in 1.0 mi WNW 13.8 mph - 0.01 in Snow Light Snow
4:05 PM 30.2 °F 20.2 °F 26.6 °F 86% 29.85 in 0.8 mi WNW 12.7 mph - 0.00 in Snow Light Snow
4:12 PM 30.2 °F 20.8 °F 26.6 °F 86% 29.85 in 0.8 mi WNW 11.5 mph - 0.00 in Snow Light Snow
4:27 PM 28.4 °F 18.5 °F 26.6 °F 93% 29.86 in 0.5 mi WNW 11.5 mph - 0.01 in Fog , Snow Light Snow
4:38 PM 28.4 °F 19.1 °F 26.6 °F 93% 29.86 in 0.5 mi WNW 10.4 mph - 0.01 in Fog , Snow Light Snow
4:50 PM 28.4 °F 18.0 °F 26.6 °F 93% 29.86 in 0.8 mi WNW 12.7 mph - 0.01 in Snow Light Snow
4:55 PM 28.9 °F 19.8 °F 26.1 °F 89% 29.90 in 0.8 mi WNW 10.4 mph - 0.01 in Snow Light Snow
5:03 PM 28.4 °F 18.0 °F 26.6 °F 93% 29.86 in 1.0 mi WNW 12.7 mph - 0.00 in Snow Light Snow
5:33 PM 28.4 °F 19.1 °F 26.6 °F 93% 29.88 in 1.5 mi WNW 10.4 mph - 0.01 in Snow Light Snow
5:40 PM 28.4 °F 18.5 °F 26.6 °F 93% 29.88 in 1.2 mi WNW 11.5 mph - 0.01 in Snow Light Snow
5:43 PM 28.4 °F 19.1 °F 26.6 °F 93% 29.88 in 1.2 mi WNW 10.4 mph - 0.01 in Snow Light Snow
5:55 PM 28.9 °F 19.2 °F 26.1 °F 89% 29.93 in 1.8 mi NW 11.5 mph - 0.01 in Snow Light Snow
6:02 PM 28.4 °F 19.1 °F 26.6 °F 93% 29.89 in 1.5 mi WNW 10.4 mph - 0.00 in Snow Light Snow
6:24 PM 28.4 °F 18.5 °F 26.6 °F 93% 29.89 in 1.2 mi WNW 11.5 mph - 0.01 in Snow Light Snow
6:40 PM 28.4 °F 18.0 °F 24.8 °F 86% 29.89 in 3.0 mi WNW 12.7 mph - 0.01 in Snow Light Snow
6:51 PM 28.4 °F 19.1 °F 24.8 °F 86% 29.90 in 1.8 mi WNW 10.4 mph - 0.01 in Snow Light Snow
6:52 PM 28.0 °F 18.1 °F 25.0 °F 88% 29.94 in 1.8 mi WNW 11.5 mph - 0.01 in Snow Light Snow
7:00 PM 28.4 °F 18.5 °F 24.8 °F 86% 29.90 in 3.0 mi WNW 11.5 mph - 0.00 in Snow Light Snow
7:34 PM 26.6 °F 17.5 °F 24.8 °F 93% 29.90 in 2.5 mi WNW 9.2 mph - 0.00 in Snow Light Snow
7:55 PM 28.0 °F 17.5 °F 25.0 °F 88% 29.94 in 4.0 mi WNW 12.7 mph - 0.00 in Snow Light Snow
8:04 PM 28.4 °F 18.5 °F 24.8 °F 86% 29.90 in 5.0 mi WNW 11.5 mph - 0.00 in   Overcast
8:55 PM 28.0 °F 18.1 °F 24.1 °F 85% 29.95 in 4.0 mi NW 11.5 mph - 0.00 in Snow Light Snow
9:51 PM 28.4 °F 18.5 °F 24.8 °F 86% 29.92 in 7.0 mi WNW 11.5 mph - 0.00 in   Overcast
9:55 PM 28.0 °F 18.1 °F 24.1 °F 85% 29.97 in 7.0 mi WNW 11.5 mph - 0.00 in   Overcast
10:55 PM 28.0 °F 19.3 °F 24.1 °F 85% 29.97 in 8.0 mi WNW 9.2 mph - N/A   Overcast
11:38 PM 28.4 °F 18.5 °F 24.8 °F 86% 29.92 in 8.0 mi WNW 11.5 mph - N/A   Overcast
11:55 PM 28.4 °F 18.0 °F 24.8 °F 86% 29.93 in 9.0 mi NW 12.7 mph - N/A   Overcast